User: anonymous   Login
Location: Cluny
(50.9333°N, 112.8167°W)
Time: 20:20:42
(UTC-06:00)
Language:

Cosmos 1743 Rocket - Orbit

View from above orbital plane
View from above orbital plane
View from above satellite
View from above satellite

Ground track
Ground track

The orbit data is extracted from the following two-line orbital elements,

1 16720U 86034B   17146.45685411 +.00000085 +00000-0 +74010-5 0  9990
2 16720 082.5548 261.7501 0020521 168.9828 236.8799 14.83289329654956
Epoch (UTC): 26 May 2017 10:57:52
Eccentricity: 0.0020521
inclination: 82.5548°
perigee height: 604 km
apogee height: 633 km
right ascension of ascending node: 261.7501°
argument of perigee: 168.9828°
revolutions per day: 14.83289329
mean anomaly at epoch: 236.8799°
orbit number at epoch: 65495

The dashed part of the orbit path shows where the satellite is in the earth's shadow,  

DLR